Weather History for KJMR - November, 2012

Change the Weather History Date:

Monday, November 26, 2012

  Actual Average Record
Temperature  
Mean Temperature 14 °F -  
Max Temperature 19 °F 32 °F 57 °F (1998)
Min Temperature 8 °F 14 °F -16 °F (1977)
Degree Days  
Heating Degree Days 52    
Moisture  
Dew Point 6 °F    
Average Humidity 67    
Maximum Humidity 79    
Minimum Humidity 49    
Precipitation  
Precipitation 0.00 in - - ()
Sea Level Pressure  
Sea Level Pressure 30.32 in    
Wind  
Wind Speed 5 mph (WNW)    
Max Wind Speed 12 mph    
Max Gust Speed 17 mph    
Visibility 9 miles    
Events Snow    
Averages and records for this station are not official NWS values.
T = Trace of Precipitation, MM = Missing Value Source: NWS Daily Summary

Daily Weather History Graph

Daily Weather History Graph

Search for Another Location

Airport or City:

Trip Planner

Search our weather history database for the weather conditions in past years. The results will help you decide how hot, cold, wet, or windy it might be!

Date:

Astronomy

Nov. 26, 2012 Rise Set
Actual Time 7:28 AM CST 4:32 PM CST
Civil Twilight 6:55 AM CST 5:05 PM CST
Nautical Twilight 6:18 AM CST 5:42 PM CST
Astronomical Twilight 5:42 AM CST 6:18 PM CST
Moon 3:27 PM CST (11/26) 5:36 AM CST (11/26)
Length of Visible Light 10h 10m
Length of Day
9h 03m
Waxing Gibbous, 97% of the Moon is Illuminated
Nov 26
Waxing Gibbous
Nov 28
Full
Dec 6
Last Quarter
Dec 13
New
Dec 19
First Quarter

Hourly Weather History & Observations

Time (CST) Temp. Windchill Dew Point Humidity Pressure Visibility Wind Dir Wind Speed Gust Speed Precip Events Conditions
12:01 AM 19.4 °F 10.4 °F 8.6 °F 63% 30.17 in 10.0 mi North 6.9 mph - N/A   Overcast
12:21 AM 17.6 °F 5.0 °F 8.6 °F 68% 30.18 in 10.0 mi NNW 11.5 mph 17.3 mph N/A   Overcast
12:41 AM 17.6 °F 8.2 °F 6.8 °F 63% 30.18 in 10.0 mi North 6.9 mph - N/A   Overcast
1:01 AM 17.6 °F 10.7 °F 6.8 °F 63% 30.18 in 10.0 mi North 4.6 mph - N/A   Overcast
1:21 AM 17.6 °F 9.3 °F 6.8 °F 63% 30.19 in 10.0 mi North 5.8 mph - N/A   Overcast
1:41 AM 17.6 °F 8.2 °F 8.6 °F 68% 30.20 in 10.0 mi North 6.9 mph - N/A   Overcast
2:01 AM 17.6 °F 9.3 °F 8.6 °F 68% 30.21 in 10.0 mi North 5.8 mph - N/A   Overcast
2:21 AM 15.8 °F 10.2 °F 8.6 °F 73% 30.21 in 10.0 mi North 3.5 mph - N/A   Overcast
2:41 AM 15.8 °F - 8.6 °F 73% 30.22 in 10.0 mi Calm Calm - N/A   Overcast
3:01 AM 14.0 °F 8.2 °F 8.6 °F 79% 30.23 in 10.0 mi NE 3.5 mph - N/A Snow Light Snow
3:21 AM 14.0 °F 8.2 °F 6.8 °F 73% 30.24 in 10.0 mi NNE 3.5 mph - N/A   Overcast
3:41 AM 14.0 °F 8.2 °F 6.8 °F 73% 30.24 in 10.0 mi NNE 3.5 mph - N/A Snow Light Snow
4:01 AM 14.0 °F - 6.8 °F 73% 30.24 in 7.0 mi Calm Calm - N/A Snow Light Snow
4:21 AM 14.0 °F - 6.8 °F 73% 30.25 in 10.0 mi Calm Calm - N/A Snow Light Snow
4:41 AM 12.2 °F 6.1 °F 5.0 °F 73% 30.26 in 10.0 mi North 3.5 mph - N/A Snow Light Snow
5:01 AM 12.2 °F - 5.0 °F 73% 30.27 in 10.0 mi Calm Calm - N/A   Overcast
5:21 AM 12.2 °F 6.1 °F 5.0 °F 73% 30.28 in 10.0 mi NNW 3.5 mph - N/A   Overcast
5:41 AM 12.2 °F 1.7 °F 5.0 °F 73% 30.29 in 10.0 mi NW 6.9 mph - N/A Snow Light Snow
6:01 AM 12.2 °F 4.3 °F 5.0 °F 73% 30.30 in 10.0 mi North 4.6 mph - N/A Snow Light Snow
6:21 AM 12.2 °F 4.3 °F 5.0 °F 73% 30.30 in 10.0 mi North 4.6 mph - N/A Snow Light Snow
6:41 AM 12.2 °F 6.1 °F 5.0 °F 73% 30.30 in 7.0 mi North 3.5 mph - N/A Snow Light Snow
7:01 AM 10.4 °F 4.0 °F 3.2 °F 73% 30.31 in 10.0 mi North 3.5 mph - N/A Snow Light Snow
7:21 AM 8.6 °F 2.0 °F 3.2 °F 79% 30.33 in 5.0 mi NW 3.5 mph - N/A Snow Light Snow
7:41 AM 10.4 °F - 3.2 °F 73% 30.34 in 4.0 mi Calm Calm - N/A Snow Light Snow
8:01 AM 10.4 °F 2.2 °F 3.2 °F 73% 30.34 in 2.0 mi NNW 4.6 mph - N/A Snow Light Snow
8:21 AM 10.4 °F 4.0 °F 3.2 °F 73% 30.34 in 2.5 mi NNW 3.5 mph - N/A Snow Light Snow
8:41 AM 10.4 °F - 5.0 °F 79% 30.36 in 3.0 mi Calm Calm - N/A Snow Light Snow
9:01 AM 12.2 °F 6.1 °F 5.0 °F 73% 30.36 in 3.0 mi West 3.5 mph - N/A Snow Light Snow
9:21 AM 12.2 °F 1.7 °F 5.0 °F 73% 30.37 in 10.0 mi West 6.9 mph - N/A Snow Light Snow
9:41 AM 12.2 °F 2.9 °F 5.0 °F 73% 30.37 in 10.0 mi West 5.8 mph - N/A   Clear
10:01 AM 12.2 °F 2.9 °F 3.2 °F 67% 30.38 in 10.0 mi West 5.8 mph - N/A Snow Light Snow
10:21 AM 12.2 °F 4.3 °F 5.0 °F 73% 30.38 in 7.0 mi West 4.6 mph - N/A Snow Light Snow
10:41 AM 14.0 °F 3.9 °F 5.0 °F 67% 30.39 in 10.0 mi NW 6.9 mph - N/A   Clear
11:01 AM 15.8 °F 8.6 °F 5.0 °F 62% 30.38 in 10.0 mi NW 4.6 mph - N/A   Clear
11:21 AM 17.6 °F 10.7 °F 5.0 °F 58% 30.39 in 10.0 mi NW 4.6 mph - N/A   Clear
11:41 AM 17.6 °F 7.3 °F 5.0 °F 58% 30.38 in 10.0 mi NNW 8.1 mph - N/A   Clear
12:01 PM 17.6 °F 7.3 °F 5.0 °F 58% 30.39 in 10.0 mi NW 8.1 mph - N/A   Clear
12:21 PM 17.6 °F 9.3 °F 5.0 °F 58% 30.39 in 10.0 mi NNW 5.8 mph - N/A   Clear
12:41 PM 17.6 °F 7.3 °F 5.0 °F 58% 30.39 in 10.0 mi NW 8.1 mph - N/A   Clear
1:01 PM 17.6 °F 9.3 °F 5.0 °F 58% 30.38 in 10.0 mi West 5.8 mph - N/A   Clear
1:21 PM 17.6 °F 8.2 °F 5.0 °F 58% 30.38 in 10.0 mi West 6.9 mph - N/A   Clear
1:41 PM 17.6 °F 12.3 °F 3.2 °F 53% 30.37 in 10.0 mi WSW 3.5 mph - N/A   Clear
2:01 PM 19.4 °F 10.4 °F 3.2 °F 49% 30.37 in 10.0 mi West 6.9 mph - N/A   Clear
2:21 PM 19.4 °F 12.8 °F 3.2 °F 49% 30.36 in 10.0 mi West 4.6 mph - N/A   Clear
2:41 PM 19.4 °F 10.4 °F 5.0 °F 54% 30.36 in 10.0 mi West 6.9 mph - N/A   Clear
3:01 PM 19.4 °F 11.5 °F 5.0 °F 54% 30.36 in 10.0 mi West 5.8 mph - N/A   Clear
3:21 PM 19.4 °F 10.4 °F 5.0 °F 54% 30.36 in 10.0 mi West 6.9 mph - N/A   Clear
3:41 PM 19.4 °F 9.5 °F 5.0 °F 54% 30.36 in 10.0 mi West 8.1 mph - N/A   Clear
4:01 PM 17.6 °F 9.3 °F 5.0 °F 58% 30.37 in 10.0 mi WNW 5.8 mph - N/A   Clear
4:21 PM 17.6 °F 8.2 °F 5.0 °F 58% 30.37 in 10.0 mi West 6.9 mph - N/A   Clear
4:41 PM 17.6 °F 10.7 °F 5.0 °F 58% 30.37 in 10.0 mi West 4.6 mph - N/A   Clear
5:01 PM 15.8 °F - 5.0 °F 62% 30.37 in 10.0 mi Calm Calm - N/A   Clear
5:21 PM 14.0 °F 6.5 °F 5.0 °F 67% 30.36 in 10.0 mi WSW 4.6 mph - N/A   Clear
5:41 PM 14.0 °F 6.5 °F 5.0 °F 67% 30.37 in 10.0 mi WSW 4.6 mph - N/A   Clear
6:01 PM 14.0 °F 6.5 °F 5.0 °F 67% 30.36 in 10.0 mi WSW 4.6 mph - N/A   Clear
6:21 PM 14.0 °F 6.5 °F 5.0 °F 67% 30.36 in 10.0 mi WSW 4.6 mph - N/A   Clear
6:41 PM 14.0 °F 8.2 °F 5.0 °F 67% 30.36 in 10.0 mi SW 3.5 mph - N/A   Clear
7:01 PM 12.2 °F 6.1 °F 3.2 °F 67% 30.35 in 10.0 mi SW 3.5 mph - N/A   Scattered Clouds
7:21 PM 12.2 °F 6.1 °F 3.2 °F 67% 30.34 in 10.0 mi SSW 3.5 mph - N/A   Scattered Clouds
7:41 PM 12.2 °F 2.9 °F 5.0 °F 73% 30.33 in 10.0 mi SSW 5.8 mph - N/A   Scattered Clouds
8:01 PM 14.0 °F - 5.0 °F 67% 30.34 in 10.0 mi Calm Calm - N/A   Mostly Cloudy
8:21 PM 14.0 °F 8.2 °F 6.8 °F 73% 30.33 in 10.0 mi SSW 3.5 mph - N/A   Mostly Cloudy
8:41 PM 14.0 °F 8.2 °F 6.8 °F 73% 30.33 in 10.0 mi WSW 3.5 mph - N/A   Mostly Cloudy
9:01 PM 14.0 °F 6.5 °F 5.0 °F 67% 30.32 in 10.0 mi SW 4.6 mph - N/A   Scattered Clouds
9:21 PM 14.0 °F 5.1 °F 6.8 °F 73% 30.31 in 10.0 mi SSW 5.8 mph - N/A   Mostly Cloudy
9:41 PM 14.0 °F 5.1 °F 8.6 °F 79% 30.31 in 10.0 mi SW 5.8 mph - N/A   Overcast
10:01 PM 17.6 °F 9.3 °F 8.6 °F 68% 30.31 in 10.0 mi SW 5.8 mph - N/A   Overcast
10:21 PM 17.6 °F 10.7 °F 8.6 °F 68% 30.30 in 10.0 mi SW 4.6 mph - N/A   Mostly Cloudy
11:01 PM 14.0 °F 8.2 °F 8.6 °F 79% 30.30 in 10.0 mi South 3.5 mph - N/A   Overcast
11:21 PM 15.8 °F 8.6 °F 8.6 °F 73% 30.30 in 10.0 mi SW 4.6 mph - N/A   Overcast
11:41 PM 17.6 °F 10.7 °F 8.6 °F 68% 30.30 in 10.0 mi SW 4.6 mph - N/A   Overcast